Location: Enborne
(51.3833°N, 1.3667°W)
Time: 14:50:55
(UTC+00:00)

Cosmos 1655 Rocket - Pass Details

Date: 18 September 2020
Orbit: 971 x 1005 km, 82.9° (Epoch: 27 October)

Event Time Altitude Azimuth Distance (km) Brightness Sun altitude
Rises 21:03:14 0° 351° (N) 3,686 7.7 -25.4°
Reaches altitude 10° 21:05:47 10° 354° (N) 2,737 6.9 -25.7°
Maximum altitude 21:12:02 67° 77° (ENE) 1,060 3.9 -26.5°
Enters shadow 21:12:32 64° 106° (ESE) 1,080 3.9 -26.5°
